Weather Roundup
Issued by NWS Corpus Christi, TX

Home | Current Version | Previous Version | Text Only | Print | Product List | Glossary On
Versions: 1 2 3 4 5 6 7 8 9 10 11 12 13 14 15 16 17 18 19 20 21 22 23 24 25 26 27 28 29 30 31 32 33 34 35 36 37 38 39 40 41 42 43 44 45 46 47 48 49 50
194
ASUS44 KCRP 270710
HRRCRP

SOUTH TEXAS REGIONAL WEATHER ROUNDUP
NATIONAL WEATHER SERVICE CORPUS CHRISTI TX
200 AM CDT THU APR 27 2017


TXZ229>244-270800-
...CORPUS CHRISTI AREA OBSERVATIONS...

CITY           SKY/WX    TMP DP  RH WIND       PRES   REMARKS
CORPUS CHRISTI CLEAR     71  55  56 NE20G26   29.77R
NAS CORPUS CHR CLEAR     74  57  55 NE18G29   29.76R
ROCKPORT       CLEAR     70  52  52 N16G23    29.77R
KINGSVILLE NAS CLEAR     70  55  59 NE10      29.75S
ALICE          CLEAR     69  51  52 E9        29.76S
ORANGE GROVE   LGT RAIN  70  53  54 NE12      29.77S
FALFURRIAS     CLEAR     73  45  36 NE13      29.75S
$$

...VICTORIA AREA OBSERVATIONS...

CITY           SKY/WX    TMP DP  RH WIND       PRES   REMARKS
VICTORIA       CLEAR     65  50  58 NE12      29.79R
BEEVILLE       FAIR      68  53  58 NE7       29.78R
PLEASANTON     CLEAR     63  47  55 NE3       29.79S
SAN ANTONIO    CLEAR     62  44  51 N6        29.79F
$$

...LAREDO AREA OBSERVATIONS...

CITY           SKY/WX    TMP DP  RH WIND       PRES   REMARKS
LAREDO         CLEAR     72  42  34 E13       29.76R
COTULLA        CLEAR     69  42  37 E8        29.76F
DEL RIO        CLEAR     64  37  36 NE5       29.76F
MCALLEN        CLEAR     77  67  71 CALM      29.71R
HEBBRONVILLE   CLEAR     68  41  37 E8        29.78R
$$

...OTHER TEXAS OBSERVATIONS...

CITY           SKY/WX    TMP DP  RH WIND       PRES   REMARKS
BROWNSVILLE    CLEAR     74  70  87 CALM      29.70R
HOUSTON        PTCLDY    61  51  70 NE9       29.80S
COL. STATION   CLEAR     57  48  72 NE10      29.78F
AUSTIN         CLEAR     53  46  77 N5        29.78F
WACO           CLEAR     47  45  93 CALM      29.80F
FORT WORTH     CLEAR     52  47  83 S5        29.77F
WICHITA FALLS  CLEAR     47  39  74 CALM      29.76F
LUBBOCK        CLEAR     49  36  61 SE9       29.75F
EL PASO        MOCLDY    72  19  13 W23G41    29.78F
$$

...MARINE OBSERVATIONS...

STATION/POSITION TIME  SKY/WX   TEMP    WIND        PRES    VSBY  WAVE   SWELL
                                AIR SEA DIR/SP/G                  HT/PER HT/PER
                 (UTC)          (F)     (DEG/KT/KT) (MB)    (MI)  (FT/S) (FT/S)
PORT ARANSAS     0600            74 78   10/ 21/ 25 1007.1R
BUOY 90 E PORT A 0650            74 76   20/ 23/ 27 1006.2R         6/ 7   3/ 7
BUOY 45 SE BAFFI 0650            76      30/ 25/ 31 1005.5R         4/ 7   3/ 7
BUOY 200 E PT IS 0550            79 79  180/  6/  6 1005.8          4/ 7   5/ 7
BUOY 15 E GALVES 0650            67 75  340/ 23/ 27 1007.6R         4/ 4   2/ 7
$$




USA.gov is the U.S. government's official web portal to all federal, state and local government web resources and services.